Погода в Уачо

Перу     11°06′14″S   77°35′44″W
темп.,
°C
ветер,
м/с
пор.,
м/с
влажн.,
%
обл.,
%
осадки,
мм/ч
давл.,
гПа
погр.,
м
14 апреля, ср
ср1401:00+19ююз227859 0.0 1012107
04:00+19ююз118058 0.0 101092
07:00+19юз11775 0.0 1012101
10:00+23юз326115 0.0 1013453
13:00+24юз535755 0.0 1011661
16:00+22зюз426366 0.0 1010522
19:00+19юз2277100 0.0 1012206
22:00+18зюз2283100 0.0 1014201
15 апреля, чт
чт1501:00+17ююз1188100 0.0 1013230
04:00+17ююз118891 0.0 1012184
07:00+18юз218799 0.0 1013177
10:00+22зюз216788 0.0 1014479
13:00+24юз425899 0.0 1012681
16:00+22юз42648 0.0 1011525
19:00+20юз227556 0.0 1013222
22:00+19юз227799 0.0 1014167
16 апреля, пт
пт1601:00+19ююз117989 0.0 1013124
04:00+18юз118260 0.0 1012106
07:00+18ююз11846 0.0 1014136
10:00+22юз326311 0.0 1014504
13:00+24юз535676 0.0 1012740
16:00+23юз425995 0.0 1011556
19:00+20ююз227271 0.0 1013197
22:00+19юз117531 0.0 1014143
17 апреля, сб
сб1701:00+19ю117937 0.0 1013115
04:00+18ююз1181100 0.0 101297
07:00+18юз118386 0.0 1014130
10:00+22юз32656 0.0 1015512
13:00+25юз535445 0.0 1012789
16:00+24юз44558 0.0 1010600
19:00+20ююз227234 0.0 1011194
22:00+19ююз227786 0.0 1013144
18 апреля, вс
вс1801:00+19ююз118074 0.0 1012115
04:00+18юз118254 0.0 101291
07:00+18юз118424 0.0 1014118
10:00+22зюз31669 0.0 1015461
13:00+24зюз425910 0.0 1013696
16:00+22юз426531 0.0 1012517
19:00+20ююз227884 0.0 1014193
22:00+19ююз2281100 0.0 1015176